Terminal Aerodrome Forecast
Issued by NWS

Home | Current Version | Previous Version | Graphics & Text | Print | Product List | Glossary On
Versions: 1 2 3 4 5 6 7 8 9 10 11 12 13 14 15 16 17 18 19 20 21 22 23 24 25 26 27 28 29 30 31 32 33 34 35 36 37 38
127
FTUS45 KGGW 050606 AAA
TAFGDV
TAF AMD
KGDV 050606Z 0506/0606 27010KT P6SM SCT015 BKN025 OVC050
      TEMPO 0506/0508 3SM -SHSN BKN020
     FM050900 32011KT 6SM BR BKN050
     FM051200 30007KT P6SM OVC100
     FM051500 25010KT P6SM SCT250
      AMD LTD TO CLD VIS AND WIND=

USA.gov is the U.S. government's official web portal to all federal, state and local government web resources and services.